• In Portugal
  • List of Countries
  • For 7 days
  • Water Temperature
  • Satellite Maps
  • Weather Map
  • Weather Widgets
  • user-avatar
    Login

    Hourly Weather Katmandu

    Today, 16 July, Monday

    Time Temperature Precipitation Wind Pressure Humidity
    00:00 +22°C° 2.5 mm 0 mps 647 mmHg 91%
    01:00 +24°C° 1.9 mm 1 mps 647 mmHg 91%
    02:00 +24°C° 1.9 mm 1 mps 647 mmHg 91%
    03:00 +24°C° 1.9 mm 1 mps 647 mmHg 90%
    04:00 +24°C° 0.6 mm 1 mps 647 mmHg 89%
    05:00 +24°C° 0.6 mm 1 mps 647 mmHg 88%
    06:00 +23°C° 0.6 mm 1 mps 646 mmHg 87%
    07:00 +25°C° 0.2 mm 1 mps 647 mmHg 81%
    08:00 +26°C° 0.2 mm 1 mps 648 mmHg 75%
    09:00 +28°C° 0.2 mm 1 mps 648 mmHg 70%
    10:00 +29°C° 0.3 mm 1 mps 648 mmHg 67%
    11:00 +30°C° 0.3 mm 2 mps 648 mmHg 64%
    12:00 +31°C° 0.3 mm 2 mps 648 mmHg 61%
    13:00 +30°C° 0.8 mm 2 mps 648 mmHg 64%
    14:00 +30°C° 0.8 mm 2 mps 647 mmHg 66%
    15:00 +30°C° 0.8 mm 2 mps 646 mmHg 69%
    16:00 +29°C° 0.9 mm 2 mps 646 mmHg 72%
    17:00 +29°C° 0.9 mm 2 mps 646 mmHg 75%
    18:00 +28°C° 0.9 mm 1 mps 645 mmHg 78%
    19:00 +27°C° 0.6 mm 1 mps 646 mmHg 82%
    20:00 +26°C° 0.6 mm 1 mps 646 mmHg 86%
    21:00 +25°C° 0.6 mm 1 mps 646 mmHg 90%
    22:00 +24°C° 1.2 mm 1 mps 646 mmHg 90%
    23:00 +24°C° 1.2 mm 1 mps 646 mmHg 91%

    Tomorrow, 17 July, Tuesday

    Time Temperature Precipitation Wind Pressure Humidity
    00:00 +22°C° 1.2 mm 0 mps 647 mmHg 91%
    01:00 +24°C° 0.7 mm 1 mps 646 mmHg 90%
    02:00 +24°C° 0.7 mm 1 mps 646 mmHg 89%
    03:00 +24°C° 0.7 mm 1 mps 646 mmHg 88%
    04:00 +24°C° 0.4 mm 1 mps 646 mmHg 88%
    05:00 +23°C° 0.4 mm 1 mps 646 mmHg 87%
    06:00 +23°C° 0.4 mm 1 mps 646 mmHg 86%
    07:00 +25°C° 0 mm 1 mps 647 mmHg 81%
    08:00 +26°C° 0 mm 1 mps 647 mmHg 76%
    09:00 +28°C° 0 mm 2 mps 648 mmHg 71%
    10:00 +28°C° 0.2 mm 2 mps 648 mmHg 69%
    11:00 +29°C° 0.2 mm 2 mps 648 mmHg 67%
    12:00 +30°C° 0.2 mm 2 mps 648 mmHg 64%
    13:00 +30°C° 0.8 mm 2 mps 647 mmHg 65%
    14:00 +30°C° 0.8 mm 2 mps 647 mmHg 66%
    15:00 +30°C° 0.8 mm 2 mps 646 mmHg 67%
    16:00 +29°C° 1 mm 2 mps 646 mmHg 71%
    17:00 +29°C° 1 mm 2 mps 646 mmHg 74%
    18:00 +28°C° 1 mm 2 mps 645 mmHg 78%
    19:00 +27°C° 0.5 mm 1 mps 646 mmHg 82%
    20:00 +26°C° 0.5 mm 1 mps 646 mmHg 86%
    21:00 +23°C° 0.5 mm 0 mps 646 mmHg 90%
    22:00 +23°C° 1.3 mm 0 mps 647 mmHg 91%
    23:00 +22°C° 1.3 mm 0 mps 647 mmHg 91%

    Day after tomorrow, 18 July, Wednesday

    Time Temperature Precipitation Wind Pressure Humidity
    00:00 +22°C° 1.3 mm 0 mps 647 mmHg 92%
    01:00 +22°C° 1 mm 0 mps 647 mmHg 91%
    02:00 +22°C° 1 mm 0 mps 647 mmHg 90%
    03:00 +22°C° 1 mm 0 mps 647 mmHg 90%
    04:00 +22°C° 0.6 mm 0 mps 647 mmHg 89%
    05:00 +22°C° 0.6 mm 0 mps 647 mmHg 88%
    06:00 +22°C° 0.6 mm 0 mps 647 mmHg 88%
    07:00 +25°C° 0.2 mm 1 mps 647 mmHg 82%
    08:00 +27°C° 0.2 mm 1 mps 648 mmHg 76%
    09:00 +28°C° 0.2 mm 2 mps 648 mmHg 70%
    10:00 +29°C° 0.4 mm 2 mps 648 mmHg 68%
    11:00 +30°C° 0.4 mm 2 mps 648 mmHg 66%
    12:00 +31°C° 0.4 mm 3 mps 648 mmHg 64%
    13:00 +30°C° 1.3 mm 3 mps 648 mmHg 66%
    14:00 +30°C° 1.3 mm 2 mps 647 mmHg 68%
    15:00 +30°C° 1.3 mm 2 mps 647 mmHg 70%
    16:00 +29°C° 1.4 mm 2 mps 646 mmHg 73%
    17:00 +29°C° 1.4 mm 2 mps 646 mmHg 76%
    18:00 +28°C° 1.4 mm 2 mps 646 mmHg 78%
    19:00 +27°C° 1.5 mm 1 mps 646 mmHg 82%
    20:00 +26°C° 1.5 mm 1 mps 646 mmHg 86%
    21:00 +25°C° 1.5 mm 1 mps 646 mmHg 90%
    22:00 +25°C° 1.7 mm 1 mps 647 mmHg 90%
    23:00 +24°C° 1.7 mm 1 mps 647 mmHg 90%

    19 July, Thursday

    Time Temperature Precipitation Wind Pressure Humidity
    00:00 +24°C° 1.7 mm 1 mps 647 mmHg 90%
    01:00 +24°C° 1 mm 1 mps 646 mmHg 89%
    02:00 +24°C° 1 mm 1 mps 646 mmHg 88%
    03:00 +24°C° 1 mm 1 mps 646 mmHg 87%
    04:00 +24°C° 0.2 mm 1 mps 646 mmHg 86%
    05:00 +24°C° 0.2 mm 1 mps 646 mmHg 85%
    06:00 +24°C° 0.2 mm 1 mps 646 mmHg 83%
    07:00 +25°C° 0.2 mm 1 mps 647 mmHg 78%
    08:00 +27°C° 0.2 mm 1 mps 647 mmHg 72%
    09:00 +28°C° 0.2 mm 1 mps 648 mmHg 67%
    10:00 +29°C° 0.8 mm 2 mps 648 mmHg 65%
    11:00 +30°C° 0.8 mm 2 mps 648 mmHg 64%
    12:00 +31°C° 0.8 mm 2 mps 648 mmHg 62%
    13:00 +30°C° 1.4 mm 2 mps 647 mmHg 64%
    14:00 +30°C° 1.4 mm 2 mps 647 mmHg 66%
    15:00 +30°C° 1.4 mm 2 mps 646 mmHg 68%
    16:00 +29°C° 1.4 mm 2 mps 646 mmHg 72%
    17:00 +29°C° 1.4 mm 2 mps 646 mmHg 75%
    18:00 +28°C° 1.4 mm 2 mps 645 mmHg 79%
    19:00 +27°C° 1.6 mm 1 mps 646 mmHg 82%
    20:00 +26°C° 1.6 mm 1 mps 646 mmHg 86%
    21:00 +23°C° 1.6 mm 0 mps 646 mmHg 90%
    22:00 +23°C° 2.2 mm 0 mps 646 mmHg 89%
    23:00 +25°C° 2.2 mm 1 mps 646 mmHg 89%

    20 July, Friday

    Time Temperature Precipitation Wind Pressure Humidity
    00:00 +24°C° 2.2 mm 1 mps 646 mmHg 89%
    01:00 +24°C° 2 mm 1 mps 646 mmHg 89%
    02:00 +24°C° 2 mm 1 mps 646 mmHg 89%
    03:00 +24°C° 2 mm 1 mps 645 mmHg 89%
    04:00 +24°C° 1 mm 1 mps 646 mmHg 88%
    05:00 +24°C° 1 mm 1 mps 646 mmHg 86%
    06:00 +24°C° 1 mm 1 mps 646 mmHg 85%
    07:00 +25°C° 0.3 mm 1 mps 646 mmHg 80%
    08:00 +26°C° 0.3 mm 1 mps 647 mmHg 74%
    09:00 +28°C° 0.3 mm 1 mps 648 mmHg 68%
    10:00 +29°C° 0.7 mm 1 mps 648 mmHg 66%
    11:00 +30°C° 0.7 mm 2 mps 647 mmHg 64%
    12:00 +30°C° 0.7 mm 2 mps 647 mmHg 63%
    13:00 +30°C° 1.3 mm 2 mps 647 mmHg 64%
    14:00 +30°C° 1.3 mm 2 mps 646 mmHg 66%
    15:00 +30°C° 1.3 mm 2 mps 646 mmHg 68%
    16:00 +29°C° 1.3 mm 2 mps 646 mmHg 70%
    17:00 +29°C° 1.3 mm 1 mps 645 mmHg 73%
    18:00 +28°C° 1.3 mm 1 mps 645 mmHg 76%
    19:00 +27°C° 1.4 mm 1 mps 645 mmHg 79%
    20:00 +24°C° 1.4 mm 0 mps 646 mmHg 82%
    21:00 +23°C° 1.4 mm 0 mps 646 mmHg 85%
    22:00 +23°C° 3 mm 0 mps 646 mmHg 86%
    23:00 +23°C° 3 mm 0 mps 646 mmHg 87%

    21 July, Saturday

    Time Temperature Precipitation Wind Pressure Humidity
    00:00 +25°C° 3 mm 1 mps 646 mmHg 88%
    01:00 +24°C° 3.2 mm 1 mps 646 mmHg 88%
    02:00 +24°C° 3.2 mm 1 mps 645 mmHg 88%
    03:00 +24°C° 3.2 mm 1 mps 645 mmHg 88%
    04:00 +24°C° 1 mm 1 mps 645 mmHg 86%
    05:00 +24°C° 1 mm 1 mps 645 mmHg 85%
    06:00 +24°C° 1 mm 1 mps 645 mmHg 83%
    07:00 +25°C° 0.4 mm 1 mps 646 mmHg 79%
    08:00 +26°C° 0.4 mm 1 mps 647 mmHg 74%
    09:00 +27°C° 0.4 mm 1 mps 647 mmHg 70%
    10:00 +29°C° 0.6 mm 1 mps 647 mmHg 67%
    11:00 +30°C° 0.6 mm 1 mps 647 mmHg 63%
    12:00 +31°C° 0.6 mm 2 mps 647 mmHg 59%
    13:00 +31°C° 1.4 mm 2 mps 647 mmHg 61%
    14:00 +31°C° 1.4 mm 2 mps 646 mmHg 63%
    15:00 +31°C° 1.4 mm 2 mps 646 mmHg 64%
    16:00 +30°C° 1.6 mm 2 mps 646 mmHg 69%
    17:00 +29°C° 1.6 mm 1 mps 645 mmHg 73%
    18:00 +28°C° 1.6 mm 1 mps 645 mmHg 77%
    19:00 +27°C° 1.6 mm 1 mps 645 mmHg 80%
    20:00 +24°C° 1.6 mm 0 mps 646 mmHg 83%
    21:00 +23°C° 1.6 mm 0 mps 646 mmHg 86%
    22:00 +23°C° 1.6 mm 0 mps 646 mmHg 87%
    23:00 +23°C° 1.6 mm 0 mps 646 mmHg 87%
    Show more